Observations for Trim Patrick St
| Time | AQI | Temp °C | Hum % | Pres Pa | CO μg/m³ | H₂S μg/m³ | NO μg/m³ | NO₂ μg/m³ | O₃ μg/m³ | SO₂ μg/m³ | PM1 μg/m³ | PM2.5 μg/m³ | PM10 μg/m³ |
|---|---|---|---|---|---|---|---|---|---|---|---|---|---|
| Monday 3 August 2026 | |||||||||||||
| 00:23 | 2 | 15.5 | 81 | 38,460 | 0.18 | 0 | 1.92 | 15.88 | 20.48 | 0 | 6.29 | 9.34 | 10.28 |
| 00:22 | 2 | 15.6 | 81 | 38,460 | 0.18 | 0 | 1.88 | 21.46 | 21.34 | 0 | 5.43 | 8.65 | 9.51 |
| 00:21 | 2 | 15.6 | 81 | 38,460 | 0.17 | 0 | 1.73 | 13 | 29.19 | 0 | 6.29 | 10.74 | 11.81 |
| 00:20 | 2 | 15.6 | 81 | 38,460 | 0.18 | 0 | 1.75 | 16.17 | 19.21 | 0 | 8 | 11.44 | 12.58 |
| 00:19 | 2 | 15.6 | 81 | 38,460 | 0.17 | 0 | 1.92 | 18.53 | 25.96 | 0 | 7.14 | 11.45 | 12.59 |
| 00:18 | 2 | 15.6 | 81 | 38,460 | 0.17 | 0 | 1.86 | 15.4 | 24.17 | 0 | 6.29 | 10.75 | 11.82 |
| 00:17 | 2 | 15.6 | 81 | 38,460 | 0.18 | 0 | 1.94 | 22.15 | 35.58 | 0 | 6.29 | 10.75 | 11.82 |
| 00:16 | 2 | 15.6 | 81 | 38,460 | 0.18 | 0 | 1.93 | 19.85 | 27.79 | 0 | 5.43 | 10.04 | 11.05 |
| 00:15 | 2 | 15.6 | 81 | 38,460 | 0.17 | 0 | 1.87 | 21.73 | 24.01 | 0 | 8.86 | 12.82 | 14.11 |
| 00:14 | 2 | 15.6 | 81 | 38,460 | 0.18 | 0 | 1.75 | 14.68 | 26.26 | 0 | 6.29 | 9.33 | 10.26 |
| 00:13 | 2 | 15.6 | 81 | 38,460 | 0.17 | 0 | 1.84 | 22.24 | 21.29 | 0 | 8 | 12.12 | 13.33 |
| 00:12 | 2 | 15.6 | 81 | 38,460 | 0.17 | 0 | 1.74 | 26.76 | 39.12 | 0 | 5.43 | 9.32 | 10.25 |
| 00:11 | 2 | 15.6 | 81 | 38,460 | 0.17 | 0 | 1.89 | 19.91 | 23.3 | 0 | 8 | 12.82 | 14.1 |
| 00:10 | 2 | 15.6 | 81 | 38,460 | 0.17 | 0 | 1.97 | 25.78 | 30.69 | 0 | 7.14 | 11.42 | 12.56 |
| 00:09 | 2 | 15.6 | 81 | 38,460 | 0.18 | 0 | 1.97 | 24.87 | 35.1 | 0 | 8 | 11.41 | 12.55 |
| 00:08 | 2 | 15.6 | 81 | 38,460 | 0.18 | 0 | 1.91 | 24.43 | 29.33 | 0 | 7.14 | 10.71 | 11.78 |
| 00:07 | 2 | 15.6 | 81 | 38,460 | 0.18 | 0 | 1.87 | 20.54 | 22.78 | 0 | 6.29 | 10.71 | 11.78 |
| 00:06 | 2 | 15.6 | 82 | 38,460 | 0.17 | 0 | 1.76 | 24.7 | 29.07 | 0 | 6.29 | 10 | 11 |
| 00:05 | 2 | 15.6 | 82 | 38,460 | 0.17 | 0 | 1.52 | 19.08 | 30.07 | 0 | 6.29 | 10 | 11 |
| 00:04 | 2 | 15.6 | 82 | 38,460 | 0.18 | 0 | 1.54 | 24.94 | 27.41 | 0 | 6.29 | 11.4 | 12.53 |